INTELSAT 16 (IS-16)

Last updated on Mon Oct 20 2025 00:02:46 GMT+0000 (Coordinated Universal Time)

1 36397U 10006A 25292.30521351 .00000000 00000+0 00000+0 0 9993 2 36397 0.0168 240.2593 0002499 344.8339 196.6120 1.00269087 57233
UTC large
Height (km)
Speed (km/s)
/
Latitude / Longitude
Inclination (degrees)
Orbital Period (minutes)
Azimuth
Elevation
Range (km)
Doppler Factor

Next 0 passes for location: London (51.5072 / 0.1276)

Sorry there are no passes over London.